Powrót do katalogu

SL-8 DEB

AktywnyPO
NORAD 18545·DEBRIS·🇷🇺 Russia

Wystrzelony Dec 17, 1986 z Plesetsk Cosmodrome

Loading…

Następne Przeloty (najbliższe 24 godziny)

TLE

ŚwieżeSource: Space-Track

Epoka: Sep 14, 2026, 10:24 UTC

1 18545U 86100C   26257.43371916  .00001382  00000-0  71682-3 0  9995
2 18545  82.9183  59.4382 0013091 285.3687 103.8775 14.14136019 18257

Śledź SL-8 DEB w czasie rzeczywistym z AllMySat

Download on the App Store